Weather reports worldwide

Advertisment
New Bern, nc, United States of America (2074441): temperature & dewpoint: 31.05.2020 13:00:00 - 06.06.2020 13:00:00 (EDT)New Bern, nc, United States of America (2074441): wind speed: 31.05.2020 13:00:00 - 06.06.2020 13:00:00 (EDT)New Bern, nc, United States of America (2074441): wind direction: 31.05.2020 13:00:00 - 06.06.2020 13:00:00 (EDT)New Bern, nc, United States of America (2074441): reduced air pressure: 31.05.2020 13:00:00 - 06.06.2020 13:00:00 (EDT)New Bern, nc, United States of America (2074441): visibility: 31.05.2020 13:00:00 - 06.06.2020 13:00:00 (EDT)New Bern, nc, United States of America (2074441): precipitation: 31.05.2020 13:00:00 - 06.06.2020 13:00:00 (EDT)
Date & Time tt [°C] td [°C] ff [km/h] ff [kn] dd ppp [hPa] vv [km] rr [mm]
06.06.2020 13:00:00 29,4 22,8 15 8 W 1013,4 16 -
06.06.2020 12:00:00 28,9 22,8 9 5 W 1013,6 16 -
06.06.2020 11:00:00 27,2 22,2 15 8 W 1013,9 16 -
06.06.2020 10:00:00 26,1 22,2 11 6 WSW 1013,9 16 -
06.06.2020 09:00:00 25,0 21,7 16 9 W 1013,9 16 -
06.06.2020 08:00:00 25,0 21,7 15 8 WSW 1013,8 16 -
06.06.2020 07:00:00 23,9 21,7 13 7 SW 1013,0 16 -
06.06.2020 06:00:00 22,8 21,1 15 8 SW 1012,8 16 -
06.06.2020 05:00:00 23,3 21,1 11 6 SW 1013,1 16 -
06.06.2020 04:00:00 23,3 21,1 13 7 SSW 1012,8 16 -
06.06.2020 03:00:00 23,9 21,1 9 5 SW 1013,0 16 -
06.06.2020 02:00:00 23,3 21,1 15 8 SSW 1013,3 16 -
06.06.2020 01:00:00 22,8 21,7 11 6 SSW 1014,1 16 -
06.06.2020 00:00:00 23,3 21,7 11 6 SSW 1014,1 16 -
05.06.2020 23:00:00 23,3 21,7 11 6 SSW 1014,4 16 -
05.06.2020 22:00:00 23,3 21,7 13 7 SSW 1014,1 16 -
05.06.2020 21:00:00 24,4 21,7 15 8 S 1013,1 16 -
05.06.2020 20:00:00 25,6 21,7 15 8 S 1013,3 16 -
05.06.2020 19:00:00 25,6 21,1 18 10 S 1013,4 16 -
05.06.2020 18:00:00 26,7 21,1 15 8 S 1013,5 16 -
05.06.2020 17:00:00 27,8 21,7 18 10 SSW 1013,6 16 -
05.06.2020 16:00:00 27,2 21,1 28 15 S 1014,1 16 -
05.06.2020 15:00:00 27,8 21,1 22 12 S 1015,0 16 -
05.06.2020 14:00:00 28,3 20,6 21 11 S 1015,5 16 -
05.06.2020 13:00:00 27,8 20,6 31 17 S 1016,1 16 -
05.06.2020 12:00:00 27,8 20,6 22 12 SSW 1016,7 16 -
05.06.2020 11:00:00 27,2 21,7 21 11 S 1017,0 16 -
05.06.2020 10:00:00 25,6 21,1 21 11 S 1017,1 16 -
05.06.2020 09:00:00 25,6 21,1 15 8 S 1017,2 16 -
05.06.2020 08:00:00 24,4 21,7 9 5 S 1016,9 16 0,0
05.06.2020 07:00:00 23,3 21,7 8 4 S 1016,7 16 -
05.06.2020 06:00:00 22,8 20,6 5 3 SSE 1016,5 16 -
05.06.2020 05:00:00 22,8 20,6 8 4 S 1016,6 16 -
05.06.2020 04:00:00 22,8 20,6 5 3 S 1016,4 16 -
05.06.2020 03:00:00 22,8 20,0 8 4 S 1016,2 16 -
05.06.2020 02:00:00 22,8 20,0 8 4 S 1016,6 16 -
05.06.2020 01:00:00 22,8 20,0 9 5 SSW 1016,8 16 -
05.06.2020 00:00:00 22,8 20,0 9 5 SW 1016,7 16 -
04.06.2020 23:00:00 22,8 18,9 13 7 SSW 1016,5 16 -
04.06.2020 22:00:00 22,8 18,3 5 3 SSW 1016,1 16 -
04.06.2020 21:00:00 23,9 18,3 9 5 SSW 1015,4 16 -
04.06.2020 20:00:00 25,6 17,2 18 10 SSW 1015,3 16 -
04.06.2020 19:00:00 27,8 13,3 18 10 SSW 1015,0 16 -
04.06.2020 18:00:00 28,9 13,3 22 12 S 1014,8 16 -
04.06.2020 17:00:00 28,9 17,8 18 10 SW 1015,1 16 -
04.06.2020 16:00:00 28,9 20,6 22 12 SSW 1015,2 16 -
04.06.2020 15:00:00 30,6 21,7 21 11 S 1015,0 16 -
04.06.2020 14:00:00 30,6 21,7 16 9 SSW 1015,3 16 -
04.06.2020 13:00:00 30,0 22,2 18 10 SSW 1015,5 16 -
04.06.2020 12:00:00 28,9 21,1 11 6 SSW 1015,5 16 -
04.06.2020 11:00:00 28,3 20,6 13 7 SSW 1015,7 16 -
04.06.2020 10:00:00 26,1 20,0 13 7 SW 1015,8 13 -
04.06.2020 09:00:00 24,4 18,9 15 8 SW 1015,9 16 -
04.06.2020 08:00:00 23,3 18,3 16 9 SW 1015,6 16 -
04.06.2020 07:00:00 21,7 17,2 16 9 SW 1015,1 16 -
04.06.2020 06:00:00 21,7 17,2 15 8 SW 1014,5 16 -
04.06.2020 05:00:00 21,7 17,8 13 7 SW 1013,8 16 -
04.06.2020 04:00:00 21,7 17,8 15 8 SW 1013,5 16 -
04.06.2020 03:00:00 21,7 18,3 11 6 SSW 1013,7 16 -
04.06.2020 02:00:00 22,2 18,3 13 7 SW 1013,8 16 -
04.06.2020 01:00:00 22,2 18,9 13 7 SW 1013,9 16 -
04.06.2020 00:00:00 22,2 18,9 11 6 SW 1013,9 16 -
03.06.2020 23:00:00 23,3 18,9 15 8 SW 1013,6 16 -
03.06.2020 22:00:00 23,3 19,4 11 6 SSW 1013,5 16 -
03.06.2020 21:00:00 23,9 19,4 16 9 SW 1012,8 16 -
03.06.2020 20:00:00 25,6 20,0 18 10 SSW 1012,2 16 -
03.06.2020 19:00:00 27,8 21,1 21 11 S 1011,8 16 -
03.06.2020 18:00:00 28,9 21,1 22 12 SSW 1011,7 16 -
03.06.2020 17:00:00 30,0 21,7 24 13 SSW 1011,7 16 -
03.06.2020 16:00:00 31,1 20,6 16 9 SW 1011,6 16 -
03.06.2020 15:00:00 31,7 20,6 18 10 WSW 1012,1 16 -
03.06.2020 14:00:00 30,6 20,0 18 10 WSW 1012,5 16 -
03.06.2020 13:00:00 29,4 20,0 16 9 WSW 1013,7 16 -
03.06.2020 12:00:00 - - - - - - - -
03.06.2020 11:00:00 26,7 18,9 22 12 WSW 1014,8 16 -
03.06.2020 10:00:00 25,0 17,8 21 11 WSW 1015,4 16 -
03.06.2020 09:00:00 23,9 17,2 24 13 WSW 1015,8 16 -
03.06.2020 08:00:00 22,2 17,2 21 11 WSW 1015,8 16 -
03.06.2020 07:00:00 21,1 16,7 16 9 SW 1016,2 16 -
03.06.2020 06:00:00 20,6 16,1 16 9 SW 1016,1 16 -
03.06.2020 05:00:00 21,1 16,7 18 10 WSW 1016,2 16 -
03.06.2020 04:00:00 21,1 17,2 18 10 SW 1016,0 16 -
03.06.2020 03:00:00 21,1 17,2 16 9 SW 1016,1 16 -
03.06.2020 02:00:00 21,1 16,7 18 10 SW 1016,8 16 -
03.06.2020 01:00:00 21,1 16,1 16 9 SW 1017,5 16 -
03.06.2020 00:00:00 20,6 15,0 18 10 SW 1017,8 16 -
02.06.2020 23:00:00 21,1 15,0 18 10 SSW 1018,2 16 -
02.06.2020 22:00:00 21,1 15,6 15 8 SSW 1018,1 16 -
02.06.2020 21:00:00 22,2 15,6 16 9 SSW 1017,8 16 -
02.06.2020 20:00:00 23,3 15,6 13 7 SSW 1017,3 16 -
02.06.2020 19:00:00 25,0 15,6 21 11 SSW 1017,0 16 -
02.06.2020 18:00:00 26,1 15,6 21 11 SW 1017,4 16 -
02.06.2020 17:00:00 26,7 16,1 21 11 WSW 1017,9 16 -
02.06.2020 16:00:00 27,2 16,7 24 13 SW 1018,7 16 -
02.06.2020 15:00:00 26,7 16,1 18 10 SW 1019,7 16 -
02.06.2020 14:00:00 26,1 15,6 24 13 SSW 1020,6 16 -
02.06.2020 13:00:00 25,6 15,0 16 9 WSW 1021,4 16 -
02.06.2020 12:00:00 25,0 15,6 16 9 SSW 1022,3 16 -
02.06.2020 11:00:00 25,0 15,6 22 12 SW 1023,0 16 -
02.06.2020 10:00:00 23,9 15,6 16 9 SW 1023,5 16 -
02.06.2020 09:00:00 21,7 15,0 11 6 SW 1023,8 16 -
02.06.2020 08:00:00 19,4 15,6 5 3 SSW 1023,9 16 -
02.06.2020 07:00:00 15,6 13,9 0 0 N 1023,7 16 -
02.06.2020 06:00:00 14,4 12,8 0 0 N 1023,4 16 -
02.06.2020 05:00:00 13,9 12,2 0 0 N 1023,4 16 -
02.06.2020 04:00:00 13,9 12,2 0 0 N 1023,4 16 -
02.06.2020 03:00:00 13,9 11,7 0 0 N 1023,8 16 -
02.06.2020 02:00:00 15,6 11,7 5 3 SSE 1024,3 16 -
02.06.2020 01:00:00 15,6 12,2 5 3 S 1024,6 16 -
02.06.2020 00:00:00 16,1 12,2 5 3 SSE 1025,1 16 -
01.06.2020 23:00:00 16,7 12,2 0 0 N 1025,1 16 -
01.06.2020 22:00:00 17,2 11,7 8 4 SE 1024,7 16 -
01.06.2020 21:00:00 17,8 12,2 8 4 SSE 1024,1 16 -
01.06.2020 20:00:00 19,4 12,8 9 5 ESE 1023,8 16 -
01.06.2020 19:00:00 20,0 13,3 16 9 SSE 1023,5 16 -
01.06.2020 18:00:00 22,2 13,3 8 4 SE 1023,1 16 -
01.06.2020 17:00:00 22,2 13,3 13 7 ESE 1023,7 16 -
01.06.2020 16:00:00 21,7 14,4 13 7 ESE 1024,2 16 -
01.06.2020 15:00:00 23,9 11,1 13 7 N 1024,4 16 -
01.06.2020 14:00:00 23,3 11,1 9 5 N 1024,9 16 -
01.06.2020 13:00:00 22,8 11,1 21 11 NNE 1025,4 16 -
01.06.2020 12:00:00 22,8 11,7 13 7 NNE 1025,4 16 -
01.06.2020 11:00:00 21,7 12,8 11 6 ENE 1025,2 16 -
01.06.2020 10:00:00 - - - - - - - -
01.06.2020 09:00:00 - - - - - - - -
01.06.2020 08:00:00 17,8 12,8 13 7 NNE 1024,0 16 -
01.06.2020 07:00:00 16,1 14,4 0 0 N 1023,5 16 -
01.06.2020 06:00:00 13,9 12,8 0 0 N 1022,7 16 -
01.06.2020 05:00:00 13,3 11,7 0 0 N 1022,3 16 -
01.06.2020 04:00:00 13,9 12,2 0 0 N 1021,9 16 -
01.06.2020 03:00:00 14,4 12,2 0 0 N 1021,7 16 -
01.06.2020 02:00:00 14,4 12,2 5 3 E 1021,2 16 -
01.06.2020 01:00:00 15,6 12,2 0 0 N 1021,0 16 -
01.06.2020 00:00:00 17,2 12,8 5 3 ENE 1020,7 16 -
31.05.2020 23:00:00 18,3 12,2 9 5 E 1020,7 16 -
31.05.2020 22:00:00 18,9 12,8 9 5 E 1020,3 16 -
31.05.2020 21:00:00 20,0 13,9 13 7 ENE 1019,7 16 -
31.05.2020 20:00:00 25,6 22,2 11 6 S 1013,2 16 -
31.05.2020 19:00:00 22,2 15,0 15 8 NNE 1018,6 16 -
31.05.2020 18:00:00 23,3 15,0 15 8 NNE 1018,0 16 -
31.05.2020 17:00:00 24,4 15,0 15 8 ENE 1018,0 16 -
31.05.2020 16:00:00 25,0 14,4 16 9 NE 1018,2 16 -
31.05.2020 15:00:00 25,6 15,6 16 9 NNE 1018,4 16 -
31.05.2020 14:00:00 25,6 15,6 21 11 NE 1018,5 16 -
31.05.2020 13:00:00 25,0 15,0 26 14 NNE 1018,9 16 -

tt = temperature
td = dewpoint
ff = wind speed
dd = wind direction
ppp = reduced air pressure
vv = visibility
rr = precipitation

Next stations